Flag Weather past 2 weeks in Amsterdam, Netherlands

Now
43 °F

Drizzle. Mostly cloudy.


Feels Like: 37 °F
Forecast: 41 / 47 °F
Wind: 10 mph from Southeast

Location: Amsterdam Schiphol Airport

Current Time: Nov 27, 2014 at 12:34:47 AM

Latest Report: Nov 26, 2014 at 11:55 PM


Visibility: 1 mi

Pressure: 29.83 "Hg

Humidity: 93%

Dew point: 41 °F

Location of AmsterdamLocation

Historic Weather in Amsterdam — Graph

°F

Amsterdam temperature yesterday

Maximum temperature yesterday: 43 °F (at 12:25 PM)
Minimum temperature yesterday: 37 °F (at 5:55 AM)
Average temperature yesterday: 41 °F

Past Weeks' High & Low Weather Summary

 TemperatureHumidityPressure
High55 °F (Nov 13, 1:25 PM)100% (Nov 12, 5:25 PM)30.33 "Hg (Nov 12, 5:25 PM)
Low34 °F (Nov 25, 5:55 AM)67% (Nov 24, 1:25 PM)29.47 "Hg (Nov 16, 3:55 PM)
Average47 °F91%29.92 "Hg
* Reported Nov 11 11:25 PM — Nov 26 11:25 PM, Amsterdam, Weather by CustomWeather, © 2014

Note: Actual official high and low records may vary slightly from our data, if they occured in-between our weather recording intervals... More about our weather records

Advertising

Amsterdam weather history for previous 24 hours

 ConditionsComfort  
Time TempWeatherWind HumidityBarometerVisibility
11:25 PM
Nov 26
43 °FDrizzle. Mostly cloudy.10 mph93%29.83 "Hg1 mi
10:55 PM43 °FFog.10 mph93%29.83 "Hg1 mi
10:25 PM43 °FFog.12 mph93%29.86 "Hg2 mi
9:55 PM43 °FDrizzle. Mostly cloudy.12 mph93%29.86 "Hg3 mi
9:25 PM43 °FDrizzle. Overcast.10 mph93%29.86 "Hg3 mi
8:55 PM43 °FMostly cloudy.12 mph87%29.86 "HgN/A
8:25 PM43 °FOvercast.12 mph87%29.86 "HgN/A
7:55 PM43 °FOvercast.10 mph81%29.86 "HgN/A
7:25 PM43 °FDrizzle. Mostly cloudy.9 mph81%29.86 "HgN/A
6:55 PM43 °FMostly cloudy.12 mph81%29.86 "HgN/A
6:25 PM43 °FOvercast.10 mph81%29.89 "HgN/A
5:55 PM43 °FOvercast.9 mph81%29.89 "HgN/A
5:25 PM43 °FOvercast.9 mph81%29.89 "HgN/A
4:55 PM43 °FOvercast.8 mph81%29.89 "HgN/A
4:25 PM43 °FOvercast.9 mph81%29.89 "HgN/A
3:55 PM43 °FPartly sunny.12 mph81%29.89 "HgN/A
3:25 PM43 °FPartly sunny.13 mph81%29.89 "HgN/A
2:55 PM43 °FPassing clouds.13 mph81%29.92 "HgN/A
2:25 PM43 °FPassing clouds.13 mph81%29.92 "HgN/A
1:55 PM43 °FSunny.12 mph76%29.92 "Hg10 mi
12:55 PM43 °FPassing clouds.13 mph81%29.95 "HgN/A
12:25 PM43 °FSunny.14 mph76%29.95 "Hg10 mi
11:55 AM41 °FPassing clouds.12 mph81%29.98 "HgN/A
11:25 AM41 °FLight rain. Passing clouds.10 mph81%29.98 "HgN/A
10:55 AM41 °FScattered clouds.12 mph81%29.98 "HgN/A
10:25 AM39 °FPartly sunny.13 mph87%29.98 "HgN/A
9:55 AM39 °FPartly sunny.12 mph87%29.98 "HgN/A
9:25 AM39 °FScattered clouds.14 mph87%29.98 "HgN/A
8:55 AM39 °FScattered clouds.14 mph87%30.01 "HgN/A
8:25 AM39 °FPartly sunny.14 mph87%30.01 "Hg6 mi
7:55 AM39 °FPassing clouds.14 mph87%30.01 "Hg5 mi
7:25 AM39 °FPassing clouds.14 mph87%30.01 "Hg6 mi
6:55 AM37 °FPassing clouds.13 mph93%30.01 "Hg6 mi
6:25 AM37 °FClear.13 mph93%30.04 "Hg6 mi
5:55 AM37 °FClear.13 mph93%30.04 "Hg6 mi
5:25 AM39 °FClear.13 mph87%30.04 "Hg6 mi
4:55 AM39 °FClear.13 mph87%30.04 "Hg6 mi
4:25 AM39 °FClear.13 mph87%30.04 "Hg4 mi
3:55 AM39 °FClear.12 mph93%30.04 "Hg4 mi
3:25 AM39 °FClear.13 mph93%30.04 "Hg4 mi
2:55 AM39 °FClear.12 mph93%30.07 "Hg5 mi
2:25 AM39 °FClear.13 mph93%30.07 "Hg5 mi
1:25 AM41 °FClear.13 mph87%30.09 "Hg5 mi
12:55 AM41 °FClear.10 mph87%30.09 "Hg5 mi
12:25 AM41 °FClear.13 mph87%30.12 "Hg6 mi
Weather by CustomWeather, © 2014

See weather overviewHow to use our weather pages